Location: Home
(42.5358°N, 72.7383°W)
Time: 10:32:07
(UTC-05:00)

Courier 1B - Pass Details

Date: 30 November 2021
Orbit: 962 x 1209 km, 28.3° (Epoch: 21 January)

Event Time Altitude Azimuth Distance (km) Brightness Sun altitude
Rises 21:16:30 0° 253° (WSW) 3,787 11.0 -53.7°
Enters shadow 21:17:24 - 250° (WSW) 3,518 10.8 -53.8°
Reaches altitude 10° 21:20:06 10° 236° (WSW) 2,789 - -54.3°
Maximum altitude 21:24:33 19° 194° (SSW) 2,170 - -55.0°
Drops below altitude 10° 21:28:54 10° 152° (SSE) 2,706 - -55.7°
Sets 21:32:20 0° 135° (SE) 3,635 - -56.3°
